Year,Month,Day,Hour,Minute,Value (Times are PST for windspeed in km/hr)
2010,10,24,00,00,18.70
2010,10,24,00,01,21.00
2010,10,24,00,02,19.20
2010,10,24,00,03,20.00
2010,10,24,00,04,17.10
2010,10,24,00,05,14.80
2010,10,24,00,06,28.90
2010,10,24,00,07,29.30
2010,10,24,00,08,20.10
2010,10,24,00,09,26.80
2010,10,24,00,10,19.20
2010,10,24,00,11,20.60
2010,10,24,00,12,20.80
2010,10,24,00,13,16.20
2010,10,24,00,14,17.80
2010,10,24,00,15,20.50
2010,10,24,00,16,26.10
2010,10,24,00,17,22.30
2010,10,24,00,18,19.10
2010,10,24,00,19,16.60
2010,10,24,00,20,13.20
2010,10,24,00,21,19.00
2010,10,24,00,22,28.70
2010,10,24,00,23,22.30
2010,10,24,00,24,26.90
2010,10,24,00,25,22.40
2010,10,24,00,26,28.50
2010,10,24,00,27,23.00
2010,10,24,00,28,32.30
2010,10,24,00,29,28.20
2010,10,24,00,30,30.60
2010,10,24,00,31,29.00
2010,10,24,00,32,29.50
2010,10,24,00,33,31.60
2010,10,24,00,34,36.60
2010,10,24,00,35,30.60
2010,10,24,00,36,25.50
2010,10,24,00,37,28.90
2010,10,24,00,38,31.40
2010,10,24,00,39,34.90
2010,10,24,00,40,35.00
2010,10,24,00,41,41.90
2010,10,24,00,42,38.50
2010,10,24,00,43,40.00
2010,10,24,00,44,37.40
2010,10,24,00,45,45.30
2010,10,24,00,46,39.20
2010,10,24,00,47,35.40
2010,10,24,00,48,48.80
2010,10,24,00,49,40.40
2010,10,24,00,50,43.80
2010,10,24,00,51,38.80
2010,10,24,00,52,35.00
2010,10,24,00,53,37.30
2010,10,24,00,54,49.20
2010,10,24,00,55,41.10
2010,10,24,00,56,42.10
2010,10,24,00,57,38.90
2010,10,24,00,58,40.70
2010,10,24,00,59,31.30
2010,10,24,01,00,34.90
2010,10,24,01,01,34.50
2010,10,24,01,02,33.50
2010,10,24,01,03,35.20
2010,10,24,01,04,43.40
2010,10,24,01,05,36.50
2010,10,24,01,06,34.80
2010,10,24,01,07,29.60
2010,10,24,01,08,26.60
2010,10,24,01,09,25.60
2010,10,24,01,10,38.90
2010,10,24,01,11,44.10
2010,10,24,01,12,36.90
2010,10,24,01,13,37.70
2010,10,24,01,14,26.90
2010,10,24,01,15,30.70
2010,10,24,01,16,27.00
2010,10,24,01,17,34.90
2010,10,24,01,18,28.60
2010,10,24,01,19,19.60
2010,10,24,01,20,29.80
2010,10,24,01,21,39.20
2010,10,24,01,22,31.50
2010,10,24,01,23,22.90
2010,10,24,01,24,34.00
2010,10,24,01,25,32.60
2010,10,24,01,26,27.40
2010,10,24,01,27,31.70
2010,10,24,01,28,42.40
2010,10,24,01,29,38.10
2010,10,24,01,30,35.90
2010,10,24,01,31,37.60
2010,10,24,01,32,41.10
2010,10,24,01,33,33.10
2010,10,24,01,34,31.80
2010,10,24,01,35,25.80
2010,10,24,01,36,28.30
2010,10,24,01,37,29.40
2010,10,24,01,38,32.60
2010,10,24,01,39,27.90
2010,10,24,01,40,37.00
2010,10,24,01,41,28.60
2010,10,24,01,42,29.00
2010,10,24,01,43,26.40
2010,10,24,01,44,26.80
2010,10,24,01,45,26.60
2010,10,24,01,46,33.70
2010,10,24,01,47,27.90
2010,10,24,01,48,37.40
2010,10,24,01,49,40.80
2010,10,24,01,50,35.40
2010,10,24,01,51,37.30
2010,10,24,01,52,36.10
2010,10,24,01,53,35.20
2010,10,24,01,54,34.90
2010,10,24,01,55,39.80
2010,10,24,01,56,33.00
2010,10,24,01,57,28.90
2010,10,24,01,58,30.30
2010,10,24,01,59,28.80
2010,10,24,02,00,38.10
2010,10,24,02,01,34.40
2010,10,24,02,02,39.30
2010,10,24,02,03,39.20
2010,10,24,02,04,41.90
2010,10,24,02,05,38.80
2010,10,24,02,06,37.60
2010,10,24,02,07,40.80
2010,10,24,02,08,43.00
2010,10,24,02,09,36.90
2010,10,24,02,10,33.50
2010,10,24,02,11,29.90
2010,10,24,02,12,37.30
2010,10,24,02,13,32.70
2010,10,24,02,14,36.70
2010,10,24,02,15,31.80
2010,10,24,02,16,33.10
2010,10,24,02,17,32.90
2010,10,24,02,18,32.60
2010,10,24,02,19,35.20
2010,10,24,02,20,44.60
2010,10,24,02,21,37.50
2010,10,24,02,22,36.40
2010,10,24,02,23,26.50
2010,10,24,02,24,36.90
2010,10,24,02,25,31.10
2010,10,24,02,26,37.40
2010,10,24,02,27,32.30
2010,10,24,02,28,35.20
2010,10,24,02,29,34.80
2010,10,24,02,30,32.00
2010,10,24,02,31,35.00
2010,10,24,02,32,35.80
2010,10,24,02,33,38.50
2010,10,24,02,34,30.70
2010,10,24,02,35,34.40
2010,10,24,02,36,28.20
2010,10,24,02,37,33.40
2010,10,24,02,38,36.90
2010,10,24,02,39,43.30
2010,10,24,02,40,27.40
2010,10,24,02,41,30.00
2010,10,24,02,42,32.00
2010,10,24,02,43,28.50
2010,10,24,02,44,31.10
2010,10,24,02,45,34.70
2010,10,24,02,46,35.60
2010,10,24,02,47,37.60
2010,10,24,02,48,24.50
2010,10,24,02,49,30.20
2010,10,24,02,50,26.10
2010,10,24,02,51,25.60
2010,10,24,02,52,32.60
2010,10,24,02,53,32.10
2010,10,24,02,54,33.10
2010,10,24,02,55,34.00
2010,10,24,02,56,32.40
2010,10,24,02,57,30.20
2010,10,24,02,58,31.30
2010,10,24,02,59,24.10
2010,10,24,03,00,29.10
2010,10,24,03,01,27.90
2010,10,24,03,02,27.40
2010,10,24,03,03,27.90
2010,10,24,03,04,21.50
2010,10,24,03,05,24.80
2010,10,24,03,06,25.10
2010,10,24,03,07,31.10
2010,10,24,03,08,27.20
2010,10,24,03,09,18.40
2010,10,24,03,10,20.80
2010,10,24,03,11,19.20
2010,10,24,03,12,20.00
2010,10,24,03,13,17.40
2010,10,24,03,14,11.00
2010,10,24,03,15,15.80
2010,10,24,03,16,15.30
2010,10,24,03,17,12.20
2010,10,24,03,18,16.30
2010,10,24,03,19,12.60
2010,10,24,03,20,15.60
2010,10,24,03,21,20.80
2010,10,24,03,22,14.80
2010,10,24,03,23,8.10
2010,10,24,03,24,5.70
2010,10,24,03,25,2.40
2010,10,24,03,26,6.00
2010,10,24,03,27,8.00
2010,10,24,03,28,5.80
2010,10,24,03,29,12.00
2010,10,24,03,30,11.00
2010,10,24,03,31,9.40
2010,10,24,03,32,13.40
2010,10,24,03,33,6.80
2010,10,24,03,34,10.90
2010,10,24,03,35,11.20
2010,10,24,03,36,16.00
2010,10,24,03,37,7.00
2010,10,24,03,38,6.50
2010,10,24,03,39,8.40
2010,10,24,03,40,5.60
2010,10,24,03,41,15.60
2010,10,24,03,42,13.60
2010,10,24,03,43,18.60
2010,10,24,03,44,17.30
2010,10,24,03,45,6.80
2010,10,24,03,46,6.60
2010,10,24,03,47,11.90
2010,10,24,03,48,2.60
2010,10,24,03,49,4.50
2010,10,24,03,50,5.80
2010,10,24,03,51,3.60
2010,10,24,03,52,4.50
2010,10,24,03,53,12.20
2010,10,24,03,54,18.70
2010,10,24,03,55,18.20
2010,10,24,03,56,9.50
2010,10,24,03,57,7.80
2010,10,24,03,58,9.20
2010,10,24,03,59,7.60
2010,10,24,04,00,12.30
2010,10,24,04,01,11.90
2010,10,24,04,02,6.70
2010,10,24,04,03,3.90
2010,10,24,04,04,2.20
2010,10,24,04,05,1.50
2010,10,24,04,06,6.40
2010,10,24,04,07,1.10
2010,10,24,04,08,3.10
2010,10,24,04,09,5.10
2010,10,24,04,10,4.20
2010,10,24,04,11,6.40
2010,10,24,04,12,8.10
2010,10,24,04,13,5.30
2010,10,24,04,14,2.00
2010,10,24,04,15,0.20
2010,10,24,04,16,1.60
2010,10,24,04,17,6.50
2010,10,24,04,18,14.40
2010,10,24,04,19,17.60
2010,10,24,04,20,16.90
2010,10,24,04,21,13.90
2010,10,24,04,22,14.70
2010,10,24,04,23,9.70
2010,10,24,04,24,14.20
2010,10,24,04,25,12.60
2010,10,24,04,26,12.50
2010,10,24,04,27,13.80
2010,10,24,04,28,10.20
2010,10,24,04,29,7.10
2010,10,24,04,30,0.30
2010,10,24,04,31,3.90
2010,10,24,04,32,9.70
2010,10,24,04,33,4.40
2010,10,24,04,34,4.10
2010,10,24,04,35,6.90
2010,10,24,04,36,11.10
2010,10,24,04,37,9.40
2010,10,24,04,38,5.00
2010,10,24,04,39,1.60
2010,10,24,04,40,5.10
2010,10,24,04,41,6.90
2010,10,24,04,42,6.40
2010,10,24,04,43,6.20
2010,10,24,04,44,9.30
2010,10,24,04,45,4.50
2010,10,24,04,46,5.00
2010,10,24,04,47,5.80
2010,10,24,04,48,8.50
2010,10,24,04,49,6.50
2010,10,24,04,50,6.50
2010,10,24,04,51,12.20
2010,10,24,04,52,8.80
2010,10,24,04,53,1.50
2010,10,24,04,54,3.30
2010,10,24,04,55,6.60
2010,10,24,04,56,11.60
2010,10,24,04,57,10.80
2010,10,24,04,58,7.30
2010,10,24,04,59,7.90
2010,10,24,05,00,8.30
2010,10,24,05,01,5.40
2010,10,24,05,02,2.50
2010,10,24,05,03,6.40
2010,10,24,05,04,6.30
2010,10,24,05,05,4.90
2010,10,24,05,06,2.20
2010,10,24,05,07,2.10
2010,10,24,05,08,6.10
2010,10,24,05,09,0.80
2010,10,24,05,10,4.10
2010,10,24,05,11,5.30
2010,10,24,05,12,2.80
2010,10,24,05,13,5.40
2010,10,24,05,14,1.80
2010,10,24,05,15,3.10
2010,10,24,05,16,0.40
2010,10,24,05,17,0.20
2010,10,24,05,18,0.00
2010,10,24,05,19,0.70
2010,10,24,05,20,0.00
2010,10,24,05,21,0.00
2010,10,24,05,22,0.40
2010,10,24,05,23,1.40
2010,10,24,05,24,1.40
2010,10,24,05,25,2.60
2010,10,24,05,26,1.70
2010,10,24,05,27,0.20
2010,10,24,05,28,0.20
2010,10,24,05,29,0.10
2010,10,24,05,30,0.20
2010,10,24,05,31,0.20
2010,10,24,05,32,0.00
2010,10,24,05,33,0.00
2010,10,24,05,34,0.00
2010,10,24,05,35,0.00
2010,10,24,05,36,0.60
2010,10,24,05,37,0.90
2010,10,24,05,38,3.10
2010,10,24,05,39,1.60
2010,10,24,05,40,1.00
2010,10,24,05,41,0.20
2010,10,24,05,42,0.10
2010,10,24,05,43,0.10
2010,10,24,05,44,0.00
2010,10,24,05,45,3.10
2010,10,24,05,46,1.80
2010,10,24,05,47,1.70
2010,10,24,05,48,0.10
2010,10,24,05,49,0.60
2010,10,24,05,50,0.00
2010,10,24,05,51,0.00
2010,10,24,05,52,0.00
2010,10,24,05,53,0.00
2010,10,24,05,54,0.00
2010,10,24,05,55,0.00
2010,10,24,05,56,0.00
2010,10,24,05,57,0.00
2010,10,24,05,58,0.60
2010,10,24,05,59,0.10
2010,10,24,06,00,0.00
2010,10,24,06,01,0.00
2010,10,24,06,02,0.00
2010,10,24,06,03,0.00
2010,10,24,06,04,0.00
2010,10,24,06,05,0.10
2010,10,24,06,06,0.00
2010,10,24,06,07,0.00
2010,10,24,06,08,0.00
2010,10,24,06,09,0.00
2010,10,24,06,10,0.00
2010,10,24,06,11,0.00
2010,10,24,06,12,0.00
2010,10,24,06,13,0.00
2010,10,24,06,14,0.00
2010,10,24,06,15,0.00
2010,10,24,06,16,0.00
2010,10,24,06,17,0.80
2010,10,24,06,18,0.10
2010,10,24,06,19,0.20
2010,10,24,06,20,2.20
2010,10,24,06,21,0.30
2010,10,24,06,22,0.30
2010,10,24,06,23,2.40
2010,10,24,06,24,9.00
2010,10,24,06,25,6.00
2010,10,24,06,26,10.10
2010,10,24,06,27,9.50
2010,10,24,06,28,12.30
2010,10,24,06,29,10.10
2010,10,24,06,30,15.10
2010,10,24,06,31,10.00
2010,10,24,06,32,9.50
2010,10,24,06,33,8.10
2010,10,24,06,34,3.90
2010,10,24,06,35,6.50
2010,10,24,06,36,4.70
2010,10,24,06,37,0.90
2010,10,24,06,38,7.20
2010,10,24,06,39,5.90
2010,10,24,06,40,0.20
2010,10,24,06,41,3.50
2010,10,24,06,42,3.60
2010,10,24,06,43,0.00
2010,10,24,06,44,0.00
2010,10,24,06,45,0.20
2010,10,24,06,46,0.60
2010,10,24,06,47,4.80
2010,10,24,06,48,0.20
2010,10,24,06,49,0.00
2010,10,24,06,50,0.00
2010,10,24,06,51,0.00
2010,10,24,06,52,2.30
2010,10,24,06,53,1.60
2010,10,24,06,54,3.70
2010,10,24,06,55,5.80
2010,10,24,06,56,5.30
2010,10,24,06,57,1.00
2010,10,24,06,58,0.10
2010,10,24,06,59,0.80
2010,10,24,07,00,0.00
2010,10,24,07,01,0.10
2010,10,24,07,02,0.00
2010,10,24,07,03,0.00
2010,10,24,07,04,0.20
2010,10,24,07,05,0.40
2010,10,24,07,06,0.60
2010,10,24,07,07,0.10
2010,10,24,07,08,0.30
2010,10,24,07,09,0.00
2010,10,24,07,10,0.00
2010,10,24,07,11,0.10
2010,10,24,07,12,1.00
2010,10,24,07,13,0.10
2010,10,24,07,14,0.00
2010,10,24,07,15,0.00
2010,10,24,07,16,0.00
2010,10,24,07,17,0.00
2010,10,24,07,18,0.00
2010,10,24,07,19,0.60
2010,10,24,07,20,0.00
2010,10,24,07,21,4.60
2010,10,24,07,22,4.40
2010,10,24,07,23,2.50
2010,10,24,07,24,4.80
2010,10,24,07,25,3.40
2010,10,24,07,26,1.70
2010,10,24,07,27,1.60
2010,10,24,07,28,2.00
2010,10,24,07,29,4.20
2010,10,24,07,30,0.00
2010,10,24,07,31,0.30
2010,10,24,07,32,0.00
2010,10,24,07,33,0.00
2010,10,24,07,34,0.00
2010,10,24,07,35,0.00
2010,10,24,07,36,0.00
2010,10,24,07,37,0.10
2010,10,24,07,38,0.00
2010,10,24,07,39,0.00
2010,10,24,07,40,0.00
2010,10,24,07,41,0.10
2010,10,24,07,42,0.00
2010,10,24,07,43,0.00
2010,10,24,07,44,0.00
2010,10,24,07,45,0.00
2010,10,24,07,46,0.00
2010,10,24,07,47,0.50
2010,10,24,07,48,0.10
2010,10,24,07,49,0.60
2010,10,24,07,50,0.60
2010,10,24,07,51,0.10
2010,10,24,07,52,1.00
2010,10,24,07,53,1.40
2010,10,24,07,54,0.40
2010,10,24,07,55,0.00
2010,10,24,07,56,0.00
2010,10,24,07,57,0.00
2010,10,24,07,58,0.00
2010,10,24,07,59,0.00
2010,10,24,08,00,0.20
2010,10,24,08,01,0.20
2010,10,24,08,02,0.70
2010,10,24,08,03,2.50
2010,10,24,08,04,2.40
2010,10,24,08,05,0.60
2010,10,24,08,06,0.10
2010,10,24,08,07,0.10
2010,10,24,08,08,0.00
2010,10,24,08,09,0.00
2010,10,24,08,10,0.00
2010,10,24,08,11,0.00
2010,10,24,08,12,0.00
2010,10,24,08,13,0.20
2010,10,24,08,14,1.70
2010,10,24,08,15,0.00
2010,10,24,08,16,0.10
2010,10,24,08,17,0.00
2010,10,24,08,18,0.10
2010,10,24,08,19,3.00
2010,10,24,08,20,1.00
2010,10,24,08,21,0.00
2010,10,24,08,22,0.00
2010,10,24,08,23,0.10
2010,10,24,08,24,0.00
2010,10,24,08,25,0.00
2010,10,24,08,26,0.00
2010,10,24,08,27,0.00
2010,10,24,08,28,0.20
2010,10,24,08,29,4.40
2010,10,24,08,30,5.60
2010,10,24,08,31,2.30
2010,10,24,08,32,0.00
2010,10,24,08,33,0.00
2010,10,24,08,34,0.10
2010,10,24,08,35,0.00
2010,10,24,08,36,0.10
2010,10,24,08,37,2.10
2010,10,24,08,38,3.20
2010,10,24,08,39,2.20
2010,10,24,08,40,0.00
2010,10,24,08,41,1.10
2010,10,24,08,42,0.00
2010,10,24,08,43,0.00
2010,10,24,08,44,0.00
2010,10,24,08,45,0.10
2010,10,24,08,46,3.00
2010,10,24,08,47,3.60
2010,10,24,08,48,0.30
2010,10,24,08,49,2.60
2010,10,24,08,50,3.50
2010,10,24,08,51,2.20
2010,10,24,08,52,6.10
2010,10,24,08,53,5.10
2010,10,24,08,54,4.90
2010,10,24,08,55,2.70
2010,10,24,08,56,2.10
2010,10,24,08,57,1.70
2010,10,24,08,58,2.00
2010,10,24,08,59,2.90
2010,10,24,09,00,3.00
2010,10,24,09,01,5.30
2010,10,24,09,02,6.40
2010,10,24,09,03,7.00
2010,10,24,09,04,7.10
2010,10,24,09,05,6.80
2010,10,24,09,06,4.20
2010,10,24,09,07,2.50
2010,10,24,09,08,2.80
2010,10,24,09,09,1.90
2010,10,24,09,10,3.10
2010,10,24,09,11,5.20
2010,10,24,09,12,5.20
2010,10,24,09,13,3.30
2010,10,24,09,14,1.00
2010,10,24,09,15,1.40
2010,10,24,09,16,1.60
2010,10,24,09,17,0.20
2010,10,24,09,18,0.00
2010,10,24,09,19,0.20
2010,10,24,09,20,0.10
2010,10,24,09,21,0.10
2010,10,24,09,22,0.00
2010,10,24,09,23,0.00
2010,10,24,09,24,0.00
2010,10,24,09,25,0.20
2010,10,24,09,26,0.80
2010,10,24,09,27,2.30
2010,10,24,09,28,2.40
2010,10,24,09,29,0.70
2010,10,24,09,30,0.90
2010,10,24,09,31,0.50
2010,10,24,09,32,0.00
2010,10,24,09,33,0.00
2010,10,24,09,34,0.20
2010,10,24,09,35,0.70
2010,10,24,09,36,0.90
2010,10,24,09,37,3.70
2010,10,24,09,38,0.40
2010,10,24,09,39,0.00
2010,10,24,09,40,0.00
2010,10,24,09,41,0.20
2010,10,24,09,42,1.60
2010,10,24,09,43,0.60
2010,10,24,09,44,0.00
2010,10,24,09,45,0.00
2010,10,24,09,46,0.00
2010,10,24,09,47,0.00
2010,10,24,09,48,0.00
2010,10,24,09,49,0.00
2010,10,24,09,50,0.00
2010,10,24,09,51,0.00
2010,10,24,09,52,0.00
2010,10,24,09,53,0.00
2010,10,24,09,54,0.00
2010,10,24,09,55,0.00
2010,10,24,09,56,0.00
2010,10,24,09,57,0.00
2010,10,24,09,58,0.00
2010,10,24,09,59,0.00
2010,10,24,10,00,0.00
2010,10,24,10,01,0.00
2010,10,24,10,02,0.00
2010,10,24,10,03,0.80
2010,10,24,10,04,0.30
2010,10,24,10,05,0.10
2010,10,24,10,06,0.00
2010,10,24,10,07,0.00
2010,10,24,10,08,0.50
2010,10,24,10,09,0.90
2010,10,24,10,10,0.60
2010,10,24,10,11,0.20
2010,10,24,10,12,0.60
2010,10,24,10,13,1.60
2010,10,24,10,14,1.90
2010,10,24,10,15,0.00
2010,10,24,10,16,0.00
2010,10,24,10,17,0.00
2010,10,24,10,18,0.50
2010,10,24,10,19,0.00
2010,10,24,10,20,1.60
2010,10,24,10,21,0.90
2010,10,24,10,22,0.00
2010,10,24,10,23,1.00
2010,10,24,10,24,0.90
2010,10,24,10,25,0.20
2010,10,24,10,26,0.00
2010,10,24,10,27,0.10
2010,10,24,10,28,0.30
2010,10,24,10,29,0.00
2010,10,24,10,30,0.00
2010,10,24,10,31,0.80
2010,10,24,10,32,0.00
2010,10,24,10,33,0.60
2010,10,24,10,34,1.80
2010,10,24,10,35,0.80
2010,10,24,10,36,0.80
2010,10,24,10,37,1.10
2010,10,24,10,38,0.00
2010,10,24,10,39,0.00
2010,10,24,10,40,0.00
2010,10,24,10,41,0.00
2010,10,24,10,42,0.00
2010,10,24,10,43,0.50
2010,10,24,10,44,0.00
2010,10,24,10,45,0.00
2010,10,24,10,46,0.00
2010,10,24,10,47,0.40
2010,10,24,10,48,0.10
2010,10,24,10,49,0.00
2010,10,24,10,50,0.00
2010,10,24,10,51,0.00
2010,10,24,10,52,0.00
2010,10,24,10,53,0.00
2010,10,24,10,54,0.00
2010,10,24,10,55,0.00
2010,10,24,10,56,0.00
2010,10,24,10,57,0.00
2010,10,24,10,58,0.00
2010,10,24,10,59,0.00
2010,10,24,11,00,0.00
2010,10,24,11,01,0.00
2010,10,24,11,02,0.00
2010,10,24,11,03,0.00
2010,10,24,11,04,0.00
2010,10,24,11,05,0.00
2010,10,24,11,06,0.00
2010,10,24,11,07,0.00
2010,10,24,11,08,0.00
2010,10,24,11,09,0.10
2010,10,24,11,10,0.70
2010,10,24,11,11,0.80
2010,10,24,11,12,0.00
2010,10,24,11,13,0.00
2010,10,24,11,14,1.00
2010,10,24,11,15,3.30
2010,10,24,11,16,4.60
2010,10,24,11,17,5.10
2010,10,24,11,18,3.90
2010,10,24,11,19,5.10
2010,10,24,11,20,2.00
2010,10,24,11,21,3.20
2010,10,24,11,22,0.40
2010,10,24,11,23,1.60
2010,10,24,11,24,0.30
2010,10,24,11,25,0.30
2010,10,24,11,26,0.10
2010,10,24,11,27,0.40
2010,10,24,11,28,0.20
2010,10,24,11,29,1.10
2010,10,24,11,30,0.50
2010,10,24,11,31,0.30
2010,10,24,11,32,2.90
2010,10,24,11,33,5.80
2010,10,24,11,34,5.60
2010,10,24,11,35,5.40
2010,10,24,11,36,8.90
2010,10,24,11,37,3.90
2010,10,24,11,38,1.60
2010,10,24,11,39,1.00
2010,10,24,11,40,0.60
2010,10,24,11,41,2.10
2010,10,24,11,42,0.10
2010,10,24,11,43,0.60
2010,10,24,11,44,0.70
2010,10,24,11,45,0.60
2010,10,24,11,46,2.00
2010,10,24,11,47,1.00
2010,10,24,11,48,2.50
2010,10,24,11,49,5.10
2010,10,24,11,50,3.10
2010,10,24,11,51,3.60
2010,10,24,11,52,1.40
2010,10,24,11,53,0.20
2010,10,24,11,54,1.10
2010,10,24,11,55,4.80
2010,10,24,11,56,1.50
2010,10,24,11,57,3.10
2010,10,24,11,58,0.40
2010,10,24,11,59,0.00
2010,10,24,12,00,1.80
2010,10,24,12,01,1.90
2010,10,24,12,02,1.30
2010,10,24,12,03,3.50
2010,10,24,12,04,0.10
2010,10,24,12,05,0.10
2010,10,24,12,06,0.60
2010,10,24,12,07,3.70
2010,10,24,12,08,0.80
2010,10,24,12,09,0.80
2010,10,24,12,10,0.90
2010,10,24,12,11,0.80
2010,10,24,12,12,1.10
2010,10,24,12,13,0.00
2010,10,24,12,14,0.10
2010,10,24,12,15,0.30
2010,10,24,12,16,0.70
2010,10,24,12,17,0.20
2010,10,24,12,18,0.10
2010,10,24,12,19,0.00
2010,10,24,12,20,0.10
2010,10,24,12,21,1.20
2010,10,24,12,22,1.00
2010,10,24,12,23,1.70
2010,10,24,12,24,0.10
2010,10,24,12,25,0.00
2010,10,24,12,26,0.00
2010,10,24,12,27,0.00
2010,10,24,12,28,0.90
2010,10,24,12,29,0.00
2010,10,24,12,30,1.40
2010,10,24,12,31,0.50
2010,10,24,12,32,0.80
2010,10,24,12,33,1.70
2010,10,24,12,34,0.10
2010,10,24,12,35,1.10
2010,10,24,12,36,2.00
2010,10,24,12,37,1.00
2010,10,24,12,38,3.10
2010,10,24,12,39,1.50
2010,10,24,12,40,2.20
2010,10,24,12,41,1.00
2010,10,24,12,42,1.00
2010,10,24,12,43,1.20
2010,10,24,12,44,0.60
2010,10,24,12,45,0.80
2010,10,24,12,46,1.50
2010,10,24,12,47,0.80
2010,10,24,12,48,1.40
2010,10,24,12,49,0.20
2010,10,24,12,50,0.60
2010,10,24,12,51,0.30
2010,10,24,12,52,3.90
2010,10,24,12,53,1.10
2010,10,24,12,54,0.40
2010,10,24,12,55,1.30
2010,10,24,12,56,0.00
2010,10,24,12,57,0.50
2010,10,24,12,58,0.80
2010,10,24,12,59,0.00
2010,10,24,13,00,1.60
2010,10,24,13,01,1.80
2010,10,24,13,02,1.70
2010,10,24,13,03,1.10
2010,10,24,13,04,5.70
2010,10,24,13,05,5.30
2010,10,24,13,06,2.50
2010,10,24,13,07,1.10
2010,10,24,13,08,0.20
2010,10,24,13,09,0.80
2010,10,24,13,10,2.70
2010,10,24,13,11,1.50
2010,10,24,13,12,0.20
2010,10,24,13,13,1.80
2010,10,24,13,14,1.60
2010,10,24,13,15,3.30
2010,10,24,13,16,1.10
2010,10,24,13,17,0.30
2010,10,24,13,18,1.60
2010,10,24,13,19,0.00
2010,10,24,13,20,0.00
2010,10,24,13,21,0.20
2010,10,24,13,22,1.40
2010,10,24,13,23,0.70
2010,10,24,13,24,1.60
2010,10,24,13,25,1.30
2010,10,24,13,26,1.80
2010,10,24,13,27,1.70
2010,10,24,13,28,0.20
2010,10,24,13,29,3.90
2010,10,24,13,30,3.00
2010,10,24,13,31,1.90
2010,10,24,13,32,0.60
2010,10,24,13,33,0.10
2010,10,24,13,34,3.00
2010,10,24,13,35,4.80
2010,10,24,13,36,0.80
2010,10,24,13,37,3.10
2010,10,24,13,38,2.70
2010,10,24,13,39,0.30
2010,10,24,13,40,1.20
2010,10,24,13,41,1.60
2010,10,24,13,42,3.60
2010,10,24,13,43,4.50
2010,10,24,13,44,3.70
2010,10,24,13,45,2.70
2010,10,24,13,46,0.60
2010,10,24,13,47,0.90
2010,10,24,13,48,1.50
2010,10,24,13,49,2.90
2010,10,24,13,50,0.80
2010,10,24,13,51,1.20
2010,10,24,13,52,2.40
2010,10,24,13,53,0.60
2010,10,24,13,54,2.00
2010,10,24,13,55,1.40
2010,10,24,13,56,1.00
2010,10,24,13,57,0.20
2010,10,24,13,58,1.50
2010,10,24,13,59,1.60
2010,10,24,14,00,3.70
2010,10,24,14,01,7.50
2010,10,24,14,02,7.50
2010,10,24,14,03,7.80
2010,10,24,14,04,7.90
2010,10,24,14,05,2.60
2010,10,24,14,06,3.40
2010,10,24,14,07,7.60
2010,10,24,14,08,5.10
2010,10,24,14,09,8.40
2010,10,24,14,10,9.70
2010,10,24,14,11,10.10
2010,10,24,14,12,7.10
2010,10,24,14,13,9.30
2010,10,24,14,14,8.80
2010,10,24,14,15,5.50
2010,10,24,14,16,11.20
2010,10,24,14,17,6.40
2010,10,24,14,18,6.80
2010,10,24,14,19,7.20
2010,10,24,14,20,8.30
2010,10,24,14,21,4.80
2010,10,24,14,22,5.30
2010,10,24,14,23,3.00
2010,10,24,14,24,5.70
2010,10,24,14,25,7.80
2010,10,24,14,26,6.40
2010,10,24,14,27,6.30
2010,10,24,14,28,5.60
2010,10,24,14,29,3.20
2010,10,24,14,30,1.70
2010,10,24,14,31,2.20
2010,10,24,14,32,1.10
2010,10,24,14,33,0.00
2010,10,24,14,34,1.40
2010,10,24,14,35,1.40
2010,10,24,14,36,2.00
2010,10,24,14,37,2.80
2010,10,24,14,38,3.70
2010,10,24,14,39,4.70
2010,10,24,14,40,5.80
2010,10,24,14,41,3.70
2010,10,24,14,42,2.50
2010,10,24,14,43,4.40
2010,10,24,14,44,8.10
2010,10,24,14,45,5.70
2010,10,24,14,46,4.20
2010,10,24,14,47,2.10
2010,10,24,14,48,5.70
2010,10,24,14,49,7.40
2010,10,24,14,50,3.40
2010,10,24,14,51,5.60
2010,10,24,14,52,6.00
2010,10,24,14,53,4.60
2010,10,24,14,54,5.60
2010,10,24,14,55,3.30
2010,10,24,14,56,3.70
2010,10,24,14,57,2.80
2010,10,24,14,58,0.90
2010,10,24,14,59,1.20
2010,10,24,15,00,0.00
2010,10,24,15,01,1.10
2010,10,24,15,02,1.30
2010,10,24,15,03,2.90
2010,10,24,15,04,0.00
2010,10,24,15,05,0.20
2010,10,24,15,06,0.00
2010,10,24,15,07,0.40
2010,10,24,15,08,0.10
2010,10,24,15,09,0.00
2010,10,24,15,10,0.00
2010,10,24,15,11,0.00
2010,10,24,15,12,0.00
2010,10,24,15,13,0.00
2010,10,24,15,14,0.00
2010,10,24,15,15,0.00
2010,10,24,15,16,0.40
2010,10,24,15,17,0.10
2010,10,24,15,18,1.50
2010,10,24,15,19,1.90
2010,10,24,15,20,0.10
2010,10,24,15,21,0.10
2010,10,24,15,22,0.10
2010,10,24,15,23,0.60
2010,10,24,15,24,0.10
2010,10,24,15,25,0.00
2010,10,24,15,26,1.60
2010,10,24,15,27,5.40
2010,10,24,15,28,0.40
2010,10,24,15,29,0.00
2010,10,24,15,30,0.10
2010,10,24,15,31,0.20
2010,10,24,15,32,0.50
2010,10,24,15,33,1.00
2010,10,24,15,34,0.10
2010,10,24,15,35,0.00
2010,10,24,15,36,0.00
2010,10,24,15,37,0.20
2010,10,24,15,38,1.40
2010,10,24,15,39,0.10
2010,10,24,15,40,0.10
2010,10,24,15,41,0.00
2010,10,24,15,42,0.60
2010,10,24,15,43,0.70
2010,10,24,15,44,1.70
2010,10,24,15,45,1.00
2010,10,24,15,46,2.00
2010,10,24,15,47,4.30
2010,10,24,15,48,3.90
2010,10,24,15,49,1.60
2010,10,24,15,50,1.20
2010,10,24,15,51,1.50
2010,10,24,15,52,1.30
2010,10,24,15,53,1.70
2010,10,24,15,54,0.20
2010,10,24,15,55,0.20
2010,10,24,15,56,0.60
2010,10,24,15,57,0.80
2010,10,24,15,58,0.40
2010,10,24,15,59,0.60
2010,10,24,16,00,0.10
2010,10,24,16,01,0.00
2010,10,24,16,02,0.00
2010,10,24,16,03,0.00
2010,10,24,16,04,0.20
2010,10,24,16,05,0.00
2010,10,24,16,06,0.10
2010,10,24,16,07,0.20
2010,10,24,16,08,0.00
2010,10,24,16,09,0.00
2010,10,24,16,10,0.10
2010,10,24,16,11,1.20
2010,10,24,16,12,0.00
2010,10,24,16,13,0.10
2010,10,24,16,14,1.00
2010,10,24,16,15,0.20
2010,10,24,16,16,0.10
2010,10,24,16,17,0.60
2010,10,24,16,18,0.60
2010,10,24,16,19,2.40
2010,10,24,16,20,0.20
2010,10,24,16,21,2.50
2010,10,24,16,22,0.10
2010,10,24,16,23,0.50
2010,10,24,16,24,0.90
2010,10,24,16,25,0.10
2010,10,24,16,26,1.60
2010,10,24,16,27,3.50
2010,10,24,16,28,0.10
2010,10,24,16,29,0.00
2010,10,24,16,30,0.00
2010,10,24,16,31,0.00
2010,10,24,16,32,0.00
2010,10,24,16,33,0.00
2010,10,24,16,34,0.00
2010,10,24,16,35,0.90
2010,10,24,16,36,2.40
2010,10,24,16,37,0.60
2010,10,24,16,38,1.30
2010,10,24,16,39,2.20
2010,10,24,16,40,0.30
2010,10,24,16,41,0.80
2010,10,24,16,42,2.70
2010,10,24,16,43,1.20
2010,10,24,16,44,1.90
2010,10,24,16,45,1.60
2010,10,24,16,46,2.90
2010,10,24,16,47,0.80
2010,10,24,16,48,0.00
2010,10,24,16,49,0.00
2010,10,24,16,50,0.00
2010,10,24,16,51,0.00
2010,10,24,16,52,0.90
2010,10,24,16,53,0.10
2010,10,24,16,54,0.10
2010,10,24,16,55,0.10
2010,10,24,16,56,0.00
2010,10,24,16,57,0.00
2010,10,24,16,58,0.00
2010,10,24,16,59,0.00
2010,10,24,17,00,0.10
2010,10,24,17,01,0.00
2010,10,24,17,02,0.00
2010,10,24,17,03,0.00
2010,10,24,17,04,0.00
2010,10,24,17,05,0.10
2010,10,24,17,06,0.10
2010,10,24,17,07,0.90
2010,10,24,17,08,0.80
2010,10,24,17,09,0.00
2010,10,24,17,10,0.00
2010,10,24,17,11,0.00
2010,10,24,17,12,0.00
2010,10,24,17,13,0.00
2010,10,24,17,14,0.00
2010,10,24,17,15,0.00
2010,10,24,17,16,0.00
2010,10,24,17,17,0.10
2010,10,24,17,18,0.20
2010,10,24,17,19,0.00
2010,10,24,17,20,0.20
2010,10,24,17,21,0.00
2010,10,24,17,22,0.00
2010,10,24,17,23,0.10
2010,10,24,17,24,0.00
2010,10,24,17,25,0.00
2010,10,24,17,26,0.10
2010,10,24,17,27,0.00
2010,10,24,17,28,0.20
2010,10,24,17,29,0.20
2010,10,24,17,30,0.90
2010,10,24,17,31,0.60
2010,10,24,17,32,1.50
2010,10,24,17,33,0.20
2010,10,24,17,34,0.00
2010,10,24,17,35,0.10
2010,10,24,17,36,0.00
2010,10,24,17,37,0.10
2010,10,24,17,38,0.50
2010,10,24,17,39,1.70
2010,10,24,17,40,0.00
2010,10,24,17,41,0.00
2010,10,24,17,42,0.10
2010,10,24,17,43,0.00
2010,10,24,17,44,0.00
2010,10,24,17,45,1.70
2010,10,24,17,46,2.70
2010,10,24,17,47,1.20
2010,10,24,17,48,0.60
2010,10,24,17,49,0.00
2010,10,24,17,50,0.00
2010,10,24,17,51,0.00
2010,10,24,17,52,0.00
2010,10,24,17,53,0.00
2010,10,24,17,54,0.20
2010,10,24,17,55,0.00